OE3WYC-1 Weather Reports


time (UTC)temp
C
wind
direction
speed
KPH
gust
KPH
rain 1hr
cm
rain 24hr
cm
rain mn
cm
humidity
%
barometer
mb
20190421080506 16 0 0.0 0.0 0.00 0.00 0.00 46 1023.7
20190421080006 15 1 0.0 4.8 0.00 0.00 0.00 46 1023.8
20190421075505 15 1 0.0 4.8 0.00 0.00 0.00 46 1023.8
20190421075006 15 0 0.0 0.0 0.00 0.00 0.00 47 1023.8
20190421074506 15 0 0.0 0.0 0.00 0.00 0.00 47 1023.8
20190421073506 15 0 0.0 0.0 0.00 0.00 0.00 46 1023.8
20190421073006 15 0 0.0 0.0 0.00 0.00 0.00 47 1023.9
20190421072505 15 0 0.0 0.0 0.00 0.00 0.00 47 1023.9
20190421072006 15 46 0.0 3.2 0.00 0.00 0.00 47 1024.0
20190421071506 14 46 0.0 3.2 0.00 0.00 0.00 48 1023.9
20190421071006 14 0 0.0 0.0 0.00 0.00 0.00 49 1023.9
20190421070505 14 0 0.0 0.0 0.00 0.00 0.00 49 1023.9
20190421070006 13 0 0.0 0.0 0.00 0.00 0.00 50 1023.9
20190421065506 13 45 0.0 3.2 0.00 0.00 0.00 51 1023.9
20190421065005 13 33 0.0 3.2 0.00 0.00 0.00 53 1024.0
20190421064505 13 22 3.2 3.2 0.00 0.00 0.00 52 1024.0
20190421064006 13 0 0.0 0.0 0.00 0.00 0.00 52 1023.9
20190421063506 12 0 0.0 0.0 0.00 0.00 0.00 53 1023.9
20190421063007 12 0 0.0 0.0 0.00 0.00 0.00 56 1023.9
20190421062506 12 0 0.0 0.0 0.00 0.00 0.00 58 1024.0
20190421062005 11 0 0.0 0.0 0.00 0.00 0.00 58 1023.9
20190421061505 11 0 0.0 0.0 0.00 0.00 0.00 61 1023.9
20190421061006 10 0 0.0 0.0 0.00 0.00 0.00 64 1024.0
20190421060505 10 0 0.0 0.0 0.00 0.00 0.00 65 1024.1
20190421060006 10 0 0.0 0.0 0.00 0.00 0.00 65 1024.0
20190421055506 9 0 0.0 0.0 0.00 0.00 0.00 66 1024.1
20190421055006 8 0 0.0 0.0 0.00 0.00 0.00 69 1024.0
20190421054506 8 0 0.0 0.0 0.00 0.00 0.00 70 1024.0
20190421054005 8 0 0.0 0.0 0.00 0.00 0.00 71 1024.1
20190421053505 8 0 0.0 0.0 0.00 0.00 0.00 72 1024.0
20190421053006 7 0 0.0 0.0 0.00 0.00 0.00 72 1024.0
20190421052505 7 0 0.0 0.0 0.00 0.00 0.00 73 1024.0
20190421052008 7 0 0.0 0.0 0.00 0.00 0.00 73 1024.0
20190421051505 7 0 0.0 0.0 0.00 0.00 0.00 73 1024.0
20190421051006 6 0 0.0 0.0 0.00 0.00 0.00 73 1024.0
20190421050505 6 0 0.0 0.0 0.00 0.00 0.00 73 1024.0
20190421050006 6 0 0.0 0.0 0.00 0.00 0.00 72 1023.9
20190421045506 6 0 0.0 0.0 0.00 0.00 0.00 72 1023.9
20190421045005 6 0 0.0 0.0 0.00 0.00 0.00 72 1023.9
20190421044510 6 0 0.0 0.0 0.00 0.00 0.00 72 1023.9
20190421044006 6 0 0.0 0.0 0.00 0.00 0.00 72 1024.0
20190421043506 6 0 0.0 0.0 0.00 0.00 0.00 72 1023.9
20190421043006 6 0 0.0 0.0 0.00 0.00 0.00 72 1023.9
20190421042506 6 0 0.0 0.0 0.00 0.00 0.00 72 1023.8
20190421042005 6 0 0.0 0.0 0.00 0.00 0.00 72 1023.7
20190421041506 6 0 0.0 0.0 0.00 0.00 0.00 72 1023.7
20190421041005 6 0 0.0 0.0 0.00 0.00 0.00 72 1023.8
20190421040505 6 0 0.0 0.0 0.00 0.00 0.00 71 1023.8
20190421040006 6 0 0.0 0.0 0.00 0.00 0.00 71 1023.6
20190421035506 6 0 0.0 0.0 0.00 0.00 0.00 71 1023.6
20190421035005 6 0 0.0 0.0 0.00 0.00 0.00 71 1023.6
20190421034506 6 0 0.0 0.0 0.00 0.00 0.00 71 1023.5
20190421034006 6 0 0.0 0.0 0.00 0.00 0.00 70 1023.6
20190421033506 6 0 0.0 0.0 0.00 0.00 0.00 70 1023.6
20190421033006 7 0 0.0 0.0 0.00 0.00 0.00 70 1023.6
20190421032506 7 0 0.0 0.0 0.00 0.00 0.00 70 1023.5
20190421032005 7 0 0.0 0.0 0.00 0.00 0.00 70 1023.6
20190421031506 7 0 0.0 0.0 0.00 0.00 0.00 70 1023.8
20190421031006 7 0 0.0 0.0 0.00 0.00 0.00 70 1023.6
20190421030506 7 0 0.0 0.0 0.00 0.00 0.00 70 1023.7
20190421030005 7 0 0.0 0.0 0.00 0.00 0.00 70 1023.6
20190421025506 7 0 0.0 0.0 0.00 0.00 0.00 69 1023.8
20190421025006 7 0 0.0 0.0 0.00 0.00 0.00 69 1023.9
20190421024506 7 0 0.0 0.0 0.00 0.00 0.00 69 1023.8
20190421024005 7 0 0.0 0.0 0.00 0.00 0.00 69 1023.8
20190421023506 7 0 0.0 0.0 0.00 0.00 0.00 69 1023.8
20190421023006 7 0 0.0 0.0 0.00 0.00 0.00 69 1023.8
20190421022506 7 0 0.0 0.0 0.00 0.00 0.00 69 1023.9
20190421022006 7 0 0.0 0.0 0.00 0.00 0.00 69 1023.9
20190421021505 7 0 0.0 0.0 0.00 0.00 0.00 69 1023.9
20190421021006 7 0 0.0 0.0 0.00 0.00 0.00 69 1023.8
20190421020506 8 0 0.0 0.0 0.00 0.00 0.00 68 1023.8
20190421020012 8 0 0.0 0.0 0.00 0.00 0.00 68 1023.9
20190421015505 8 0 0.0 0.0 0.00 0.00 0.00 68 1023.9
20190421015005 8 0 0.0 0.0 0.00 0.00 0.00 68 1023.8
20190421014506 8 0 0.0 0.0 0.00 0.00 0.00 67 1023.7
20190421014006 8 0 0.0 0.0 0.00 0.00 0.00 67 1024.0
20190421013506 8 0 0.0 0.0 0.00 0.00 0.00 67 1024.1
20190421013010 8 0 0.0 0.0 0.00 0.00 0.00 67 1024.0
20190421012506 8 0 0.0 0.0 0.00 0.00 0.00 67 1024.2
20190421012006 8 0 0.0 0.0 0.00 0.00 0.00 67 1024.1
20190421011506 8 0 0.0 0.0 0.00 0.00 0.00 67 1024.2
20190421011006 8 0 0.0 0.0 0.00 0.00 0.00 66 1024.1
20190421010507 8 0 0.0 0.0 0.00 0.00 0.00 66 1024.2
20190421005006 8 0 0.0 0.0 0.00 0.00 0.00 65 1024.2
20190421004505 9 0 0.0 0.0 0.00 0.00 0.00 65 1024.2
20190421004005 9 0 0.0 0.0 0.00 0.00 0.00 65 1024.0
20190421003505 9 0 0.0 0.0 0.00 0.00 0.00 65 1023.9
20190421003006 9 0 0.0 0.0 0.00 0.00 0.00 64 1024.2
20190421002506 9 0 0.0 0.0 0.00 0.00 0.00 64 1024.2
20190421002006 9 0 0.0 0.0 0.00 0.00 0.00 64 1024.2
20190421001505 9 0 0.0 0.0 0.00 0.00 0.00 64 1024.1
20190421001009 9 0 0.0 0.0 0.00 0.00 0.00 63 1024.3
20190421000516 9 0 0.0 0.0 0.00 0.00 0.00 63 1024.4
20190421000005 9 0 0.0 0.0 0.00 0.00 0.00 63 1024.3
20190420235506 9 0 0.0 0.0 0.00 0.00 0.00 62 1024.4
20190420235005 10 0 0.0 0.0 0.00 0.00 0.00 62 1024.4
20190420234506 10 0 0.0 0.0 0.00 0.00 0.00 62 1024.6
20190420234005 10 0 0.0 0.0 0.00 0.00 0.00 61 1024.5
20190420233506 10 0 0.0 0.0 0.00 0.00 0.00 61 1024.6
20190420233006 10 0 0.0 0.0 0.00 0.00 0.00 61 1024.5
20190420232506 10 0 0.0 0.0 0.00 0.00 0.00 61 1024.6
20190420232005 10 0 0.0 0.0 0.00 0.00 0.00 60 1024.6
20190420231505 10 0 0.0 0.0 0.00 0.00 0.00 61 1024.6
20190420231005 10 0 0.0 0.0 0.00 0.00 0.00 60 1024.6
20190420230505 10 0 0.0 0.0 0.00 0.00 0.00 60 1024.7
20190420230006 10 0 0.0 0.0 0.00 0.00 0.00 60 1024.7
20190420225505 10 0 0.0 0.0 0.00 0.00 0.00 60 1024.7
20190420225005 10 0 0.0 0.0 0.00 0.00 0.00 59 1024.6
20190420224505 10 0 0.0 0.0 0.00 0.00 0.00 59 1024.9
20190420224005 10 0 0.0 0.0 0.00 0.00 0.00 59 1025.0
20190420223506 10 0 0.0 0.0 0.00 0.00 0.00 59 1024.9
20190420223006 10 0 0.0 0.0 0.00 0.00 0.00 58 1024.8
20190420222506 10 0 0.0 0.0 0.00 0.00 0.00 57 1024.8
20190420222005 10 0 0.0 0.0 0.00 0.00 0.00 57 1024.8
20190420221505 10 0 0.0 0.0 0.00 0.00 0.00 57 1024.7
20190420221007 10 0 0.0 0.0 0.00 0.00 0.00 57 1024.6
20190420220505 10 68 0.0 3.2 0.00 0.00 0.00 57 1024.9
20190420220006 10 68 0.0 3.2 0.00 0.00 0.00 58 1024.7
20190420215506 11 0 0.0 0.0 0.00 0.00 0.00 58 1024.6
20190420215006 11 0 0.0 0.0 0.00 0.00 0.00 57 1024.6
20190420214505 11 0 0.0 0.0 0.00 0.00 0.00 57 1024.6
20190420214006 11 0 0.0 0.0 0.00 0.00 0.00 56 1024.6
20190420213505 11 0 0.0 0.0 0.00 0.00 0.00 56 1024.6
20190420213006 11 0 0.0 0.0 0.00 0.00 0.00 56 1024.7
20190420212506 11 0 0.0 0.0 0.00 0.00 0.00 56 1024.7
20190420212006 11 0 0.0 0.0 0.00 0.00 0.00 56 1024.7
20190420211506 11 0 0.0 0.0 0.00 0.00 0.00 55 1024.7
20190420211006 11 0 0.0 0.0 0.00 0.00 0.00 55 1024.7
20190420210506 11 0 0.0 0.0 0.00 0.15 0.00 55 1024.6
20190420210005 11 0 0.0 0.0 0.00 0.15 0.00 54 1024.5
20190420205505 12 0 0.0 0.0 0.00 0.15 0.00 54 1024.6
20190420205005 12 0 0.0 0.0 0.00 0.15 0.00 53 1024.5
20190420204509 12 0 0.0 0.0 0.00 0.15 0.00 53 1024.5
20190420204005 12 0 0.0 0.0 0.00 0.15 0.00 53 1024.6
20190420203505 12 0 0.0 0.0 0.00 0.15 0.00 52 1024.6
20190420203005 12 0 0.0 0.0 0.00 0.15 0.00 52 1024.5
20190420202505 12 0 0.0 0.0 0.00 0.15 0.00 51 1024.5
20190420202005 12 0 0.0 0.0 0.00 0.15 0.00 51 1024.5
20190420201506 13 0 0.0 0.0 0.00 0.15 0.00 50 1024.5
20190420201005 13 0 0.0 0.0 0.00 0.15 0.00 50 1024.6
20190420200506 13 0 0.0 0.0 0.00 0.15 0.00 49 1024.6
20190420200005 13 0 0.0 0.0 0.00 0.15 0.00 49 1024.6
20190420195505 13 0 0.0 0.0 0.00 0.15 0.00 49 1024.6
20190420195005 13 0 0.0 0.0 0.00 0.15 0.00 49 1024.6
20190420194506 13 0 0.0 0.0 0.00 0.15 0.00 48 1024.6
20190420194005 14 0 0.0 0.0 0.00 0.15 0.00 47 1024.5
20190420193506 14 0 0.0 0.0 0.00 0.15 0.00 46 1024.6
20190420193005 14 0 0.0 0.0 0.00 0.15 0.00 46 1024.5
20190420192505 15 0 0.0 0.0 0.00 0.15 0.00 45 1024.5
20190420192005 15 0 0.0 0.0 0.00 0.15 0.00 44 1024.6
20190420191505 15 0 0.0 0.0 0.00 0.15 0.00 43 1024.7
20190420191005 15 0 0.0 0.0 0.00 0.15 0.00 43 1024.6
20190420190506 15 0 0.0 0.0 0.00 0.15 0.00 42 1024.6
20190420190005 16 0 0.0 0.0 0.00 0.15 0.00 42 1024.6
20190420185506 16 0 0.0 0.0 0.00 0.15 0.00 41 1024.6
20190420185006 16 0 0.0 0.0 0.00 0.15 0.00 40 1024.6
20190420184506 16 0 0.0 0.0 0.00 0.15 0.00 39 1024.7
20190420184006 16 0 0.0 0.0 0.00 0.00 0.00 39 1024.7
20190420183506 17 90 0.0 4.8 0.00 0.00 0.00 38 1024.7
20190420183009 17 90 0.0 4.8 0.00 0.00 0.00 38 1024.7
20190420182506 17 0 0.0 0.0 0.00 0.00 0.00 37 1024.6
20190420182005 17 0 0.0 0.0 0.00 0.00 0.00 36 1024.6
20190420181506 18 0 0.0 0.0 0.00 0.00 0.00 35 1024.5
20190420181005 18 0 0.0 0.0 0.00 0.00 0.00 34 1024.5
20190420180505 18 90 0.0 3.2 0.00 0.00 0.00 34 1024.5
20190420180005 18 90 0.0 3.2 0.00 0.00 0.00 33 1024.5
20190420175506 19 0 0.0 0.0 0.00 0.00 0.00 33 1024.5
20190420175006 19 90 0.0 4.8 0.00 0.00 0.00 32 1024.6
20190420174506 19 90 0.0 4.8 0.00 0.00 0.00 31 1024.6
20190420174005 20 90 0.0 3.2 0.00 0.00 0.00 30 1024.6
20190420173505 20 0 0.0 0.0 0.00 0.00 0.00 30 1024.6
20190420173007 20 90 0.0 4.8 0.00 0.00 0.00 29 1024.6
20190420172505 20 90 0.0 4.8 0.00 0.00 0.00 29 1024.5
20190420172005 20 90 0.0 4.8 0.00 0.00 0.00 28 1024.5
20190420171506 20 90 0.0 4.8 0.00 0.00 0.00 27 1024.5
20190420171006 20 90 0.0 4.8 0.00 0.00 0.00 27 1024.5
20190420170506 20 90 0.0 4.8 0.00 0.00 0.00 27 1024.5
20190420170009 20 90 0.0 4.8 0.00 0.00 0.00 27 1024.7
20190420165506 21 90 0.0 4.8 0.00 0.00 0.00 26 1024.7
20190420165005 21 0 0.0 0.0 0.00 0.00 0.00 26 1024.8
20190420164505 21 90 0.0 3.2 0.00 0.00 0.00 26 1024.8
20190420164005 21 90 0.0 3.2 0.00 0.00 0.00 26 1024.9
20190420163506 21 0 0.0 0.0 0.00 0.00 0.00 26 1025.1
20190420163005 21 0 0.0 0.0 0.00 0.00 0.00 26 1025.0
20190420162505 21 68 0.0 4.8 0.00 0.00 0.00 26 1025.1
20190420162005 21 68 0.0 4.8 0.00 0.00 0.00 26 1025.1
20190420161507 21 0 0.0 0.0 0.00 0.00 0.00 26 1025.2
20190420161005 21 0 0.0 0.0 0.00 0.00 0.00 26 1025.2
20190420160506 21 0 0.0 0.0 0.00 0.00 0.00 26 1025.3
20190420160006 21 0 0.0 0.0 0.00 0.00 0.00 26 1025.3
20190420155506 21 0 0.0 0.0 0.00 0.00 0.00 26 1025.3
20190420155005 21 0 0.0 0.0 0.00 0.00 0.00 26 1025.3
20190420154505 21 0 0.0 0.0 0.00 0.00 0.00 26 1025.3
20190420154005 22 0 0.0 0.0 0.00 0.00 0.00 26 1025.4
20190420153506 22 0 0.0 0.0 0.00 0.00 0.00 26 1025.5
20190420153006 22 0 0.0 0.0 0.00 0.00 0.00 26 1025.3
20190420152505 22 0 0.0 0.0 0.00 0.00 0.00 26 1025.4
20190420152005 22 0 0.0 0.0 0.00 0.00 0.00 26 1025.5
20190420151505 22 0 0.0 0.0 0.00 0.00 0.00 26 1025.6
20190420151005 22 0 0.0 0.0 0.00 0.00 0.00 27 1025.6
20190420150505 22 111 0.0 1.6 0.00 0.00 0.00 26 1025.8
20190420150006 22 66 0.0 4.8 0.00 0.00 0.00 26 1025.7
20190420145505 22 59 0.0 4.8 0.00 0.00 0.00 25 1025.8
20190420145005 22 53 4.8 4.8 0.00 0.00 0.00 25 1026.0
20190420144506 22 21 0.0 6.4 0.00 0.00 0.00 26 1025.9
20190420144006 22 17 0.0 6.4 0.00 0.00 0.00 26 1025.9
20190420143505 22 90 0.0 6.4 0.00 0.00 0.00 26 1026.1
20190420143005 22 90 0.0 6.4 0.00 0.00 0.00 26 1026.1
20190420142505 22 90 0.0 8.0 0.00 0.00 0.00 26 1026.1
20190420142005 22 95 0.0 8.0 0.00 0.00 0.00 26 1026.2
20190420141505 22 93 0.0 6.4 0.00 0.00 0.00 26 1026.3
20190420141005 22 82 0.0 6.4 0.00 0.00 0.00 26 1026.4
20190420140505 22 82 3.2 9.7 0.00 0.00 0.00 26 1026.3
20190420140005 22 93 3.2 9.7 0.00 0.00 0.00 26 1026.6
20190420135506 22 93 0.0 4.8 0.00 0.00 0.00 26 1026.6
20190420135013 22 88 0.0 4.8 0.00 0.00 0.00 26 1026.7
20190420134505 22 63 4.8 4.8 0.00 0.00 0.00 26 1026.9
20190420134008 22 57 0.0 4.8 0.00 0.00 0.00 26 1026.9
20190420133505 23 76 0.0 4.8 0.00 0.00 0.00 26 1027.1
20190420133005 23 89 3.2 4.8 0.00 0.00 0.00 28 1027.0
20190420132505 22 92 0.0 4.8 0.00 0.00 0.00 28 1027.0
20190420132009 22 121 3.2 4.8 0.00 0.00 0.00 28 1027.1
20190420131505 22 68 0.0 4.8 0.00 0.00 0.00 26 1027.3
20190420131007 22 68 0.0 4.8 0.00 0.00 0.00 26 1027.2
20190420130505 22 90 0.0 3.2 0.00 0.00 0.00 26 1027.3
20190420130006 22 102 0.0 4.8 0.00 0.00 0.00 27 1027.6
20190420125505 22 97 0.0 6.4 0.00 0.00 0.00 27 1027.6
20190420125005 22 92 0.0 6.4 0.00 0.00 0.00 27 1027.5
20190420124506 22 85 0.0 4.8 0.00 0.00 0.00 28 1027.5
20190420124005 22 0 0.0 0.0 0.00 0.00 0.00 28 1027.5
20190420123505 22 68 0.0 1.6 0.00 0.00 0.00 28 1027.7
20190420123005 22 85 0.0 6.4 0.00 0.00 0.00 28 1027.6
20190420122505 22 90 0.0 6.4 0.00 0.00 0.00 27 1027.7
20190420122005 22 73 0.0 8.0 0.00 0.00 0.00 26 1027.7
20190420121505 22 68 3.2 8.0 0.00 0.00 0.00 27 1027.9
20190420121006 22 64 0.0 6.4 0.00 0.00 0.00 28 1028.0
20190420120505 22 0 0.0 0.0 0.00 0.00 0.00 28 1027.9
20190420120005 22 0 0.0 0.0 0.00 0.00 0.00 29 1028.0
20190420115505 22 0 0.0 0.0 0.00 0.00 0.00 28 1028.1
20190420115005 22 0 0.0 0.0 0.00 0.00 0.00 26 1028.2
20190420114505 22 0 0.0 0.0 0.00 0.00 0.00 28 1028.2
20190420114005 22 90 0.0 1.6 0.00 0.00 0.00 28 1028.3
20190420113505 21 90 0.0 1.6 0.00 0.00 0.00 28 1028.2
20190420113005 21 0 0.0 0.0 0.00 0.00 0.00 29 1028.4
20190420112505 21 0 0.0 0.0 0.00 0.00 0.00 29 1028.5
20190420112005 21 0 0.0 0.0 0.00 0.00 0.00 27 1028.6
20190420111505 21 0 0.0 0.0 0.00 0.00 0.00 27 1028.5
20190420111005 21 90 0.0 1.6 0.00 0.00 0.00 27 1028.6
20190420110506 21 90 0.0 1.6 0.00 0.00 0.00 28 1028.7
20190420110005 21 0 0.0 0.0 0.00 0.00 0.00 29 1028.7
20190420105505 21 112 0.0 6.4 0.00 0.00 0.00 29 1028.7
20190420105006 21 112 0.0 6.4 0.00 0.00 0.00 30 1028.8
20190420104505 21 6 0.0 3.2 0.00 0.00 0.00 30 1028.7
20190420104006 20 6 0.0 3.2 0.00 0.00 0.00 30 1028.8
20190420103505 20 90 0.0 4.8 0.00 0.00 0.00 31 1028.9
20190420103006 20 94 0.0 4.8 0.00 0.00 0.00 31 1028.9
20190420102505 20 52 0.0 3.2 0.00 0.00 0.00 31 1028.8
20190420102005 20 22 0.0 3.2 0.00 0.00 0.00 32 1029.0
20190420101505 20 89 0.0 8.0 0.00 0.00 0.00 31 1029.0
20190420101005 20 89 0.0 8.0 0.00 0.00 0.00 32 1029.2
20190420100505 20 0 0.0 0.0 0.00 0.00 0.00 34 1028.9
20190420100005 20 0 0.0 0.0 0.00 0.00 0.00 35 1029.2
20190420095505 20 0 0.0 0.0 0.00 0.00 0.00 36 1029.1
20190420095005 20 0 0.0 0.0 0.00 0.00 0.00 36 1029.2
20190420094505 19 0 0.0 0.0 0.00 0.00 0.00 37 1029.3
20190420094005 19 0 0.0 0.0 0.00 0.00 0.00 37 1029.3
20190420093505 19 0 0.0 0.0 0.00 0.00 0.00 37 1029.3
20190420093005 19 0 0.0 0.0 0.00 0.00 0.00 38 1029.5
20190420092514 18 0 0.0 0.0 0.00 0.00 0.00 40 1029.3
20190420091004 18 0 0.0 0.0 0.00 0.00 0.00 40 1029.6
20190420090505 18 0 0.0 0.0 0.00 0.00 0.00 41 1029.7
20190420090005 17 0 0.0 0.0 0.00 0.00 0.00 41 1029.7
20190420085505 17 0 0.0 0.0 0.00 0.00 0.00 43 1029.7
20190420085009 17 0 0.0 0.0 0.00 0.00 0.00 44 1029.7
20190420084506 17 0 0.0 0.0 0.00 0.00 0.00 46 1029.8
20190420084006 17 0 0.0 0.0 0.00 0.00 0.00 47 1029.8
20190420083505 17 0 0.0 0.0 0.00 0.00 0.00 48 1029.9
20190420083005 16 0 0.0 0.0 0.00 0.00 0.00 49 1029.9
20190420082505 16 0 0.0 0.0 0.00 0.00 0.00 49 1030.0
20190420082005 16 90 0.0 1.6 0.00 0.00 0.00 50 1030.0
20190420081506 16 90 0.0 1.6 0.00 0.00 0.00 50 1030.1
20190420081005 16 0 0.0 0.0 0.00 0.00 0.00 50 1029.9